Other Public Products
Issued by NWS Charleston, SC

Current Version | Previous Version | Graphics & Text | Print | Product List | Glossary On
Versions: 1 2 3 4 5 6 7 8 9 10 11 12 13 14 15 16 17 18 19 20 21 22 23 24 25 26 27 28 29 30 31 32 33 34 35 36 37 38 39 40 41 42 43 44 45 46 47 48 49 50
000 FPUS82 KCHS 110026 OPUCHS TEST...KCHS/KSAV Gateway Observations...TEST National Weather Service Charleston SC 700 PM EST SUN DEC 10 2017 NOTE: "fair" indicates few or no clouds below 12,000 feet with no significant weather and/or obstructions to visibility. SCZ050-WAZ558-NCZ071-TXZ119-213-PAZ071-DCZ001-FLZ074-172-MI076- NYZ176-178-MAZ016-IL014-TNZ027-NJZ106-GAZ044-MD014-110100- ...Gateway Observations for Charleston International... CITY SKY/WX TMP DP RH WIND PRES REMARKS Chas Airport CLEAR 38 30 73 S5 30.24R WCI 34 6HR MIN TEMP: 38; 6HR MAX TEMP: 50; Seattle PTCLDY 45 33 63 N6 30.34S 6HR MIN TEMP: 41; 6HR MAX TEMP: 49; Charlotte CLEAR 37 24 59 S6 30.15S WCI 32 6HR MIN TEMP: 37; 6HR MAX TEMP: 47; Dallas DFW PTCLDY 67 17 14 SW6 30.27F 6HR MIN TEMP: 64; 6HR MAX TEMP: 74; Dallas Love PTCLDY 66 19 16 CALM 30.28F 6HR MIN TEMP: 62; 6HR MAX TEMP: 72; Philladelphia PTCLDY 36 22 56 SW12 30.04S WCI 28 6HR MIN TEMP: 36; 6HR MAX TEMP: 40; Wash National MOCLDY 38 24 57 S6 30.07S WCI 33 6HR MIN TEMP: 38; 6HR MAX TEMP: 41; Baltimore PTCLDY 35 22 58 SW5 30.05R WCI 31 6HR MIN TEMP: 33; 6HR MAX TEMP: 39; Miami CLEAR 57 42 57 NW8 30.26R 6HR MIN TEMP: 57; 6HR MAX TEMP: 64; Detroit CLOUDY 29 20 69 SW12 29.94S WCI 19 6HR MIN TEMP: 26; 6HR MAX TEMP: 29; 6HR PCP: TRACE; Newark CLOUDY 36 22 56 SW9 30.00R WCI 29 6HR MIN TEMP: 36; 6HR MAX TEMP: 40; Laguardia PTCLDY 38 20 48 SW13 29.99R WCI 30 6HR MIN TEMP: 38; 6HR MAX TEMP: 40; J F K MOCLDY 36 23 59 W15 30.01S WCI 27 6HR MIN TEMP: 36; 6HR MAX TEMP: 38; Boston Logan MOCLDY 33 24 69 SW13 29.93R WCI 24 6HR MIN TEMP: 33; 6HR MAX TEMP: 38; Ft. Lauderdale PTCLDY 55 41 59 NW8 30.25R 6HR MIN TEMP: 55; 6HR MAX TEMP: 62; Chicago O`Hare CLOUDY 31 19 61 NW12 30.03R WCI 22 6HR MIN TEMP: 30; 6HR MAX TEMP: 35; Chicago Midway MOCLDY 31 21 66 NW9 30.03R WCI 23 6HR MIN TEMP: 31; 6HR MAX TEMP: 36; Houston Bush PTCLDY 55 36 48 SW3 30.36F 6HR MIN TEMP: 53; 6HR MAX TEMP: 65; Houston Hobby PTCLDY 57 33 40 W3 30.36F 6HR MIN TEMP: 56; 6HR MAX TEMP: 64; Nashville CLEAR 44 20 38 S7 30.14R 6HR MIN TEMP: 43; 6HR MAX TEMP: 49; Atlanta CLEAR 36 26 67 W8 30.23R WCI 30 6HR MIN TEMP: 36; 6HR MAX TEMP: 45; $$ GAZ044-118-TXZ119-213-NCZ071-DCZ001-MDZ014-506-PAZ021-071-NJZ106- NYZ176-178-MAZ106-OHZ011-021-055-MIZ076-KYZ091-ILZ014-INZ047- MNZ060-ONZ431-110100- ...Gateway Observations for Savannah International... CITY SKY/WX TMP DP RH WIND PRES REMARKS Savannah Arpt CLEAR 40 32 73 SW5 30.26R WCI 37 6HR MIN TEMP: 39; 6HR MAX TEMP: 51; Atlanta CLEAR 36 26 67 W8 30.23R WCI 30 6HR MIN TEMP: 36; 6HR MAX TEMP: 45; Charlotte CLEAR 37 24 59 S6 30.15S WCI 32 6HR MIN TEMP: 37; 6HR MAX TEMP: 47; Dallas DFW PTCLDY 67 17 14 SW6 30.27F 6HR MIN TEMP: 64; 6HR MAX TEMP: 74; Houston Bush PTCLDY 55 36 48 SW3 30.36F 6HR MIN TEMP: 53; 6HR MAX TEMP: 65; Wash National MOCLDY 38 24 57 S6 30.07S WCI 33 6HR MIN TEMP: 38; 6HR MAX TEMP: 41; Wash Dulles PTCLDY 30 25 81 SE5 30.04S WCI 25 6HR MIN TEMP: 30; 6HR MAX TEMP: 40; Baltimore PTCLDY 35 22 58 SW5 30.05R WCI 31 6HR MIN TEMP: 33; 6HR MAX TEMP: 39; Philadelphia PTCLDY 36 22 56 SW12 30.04S WCI 28 6HR MIN TEMP: 36; 6HR MAX TEMP: 40; Newark CLOUDY 36 22 56 SW9 30.00R WCI 29 6HR MIN TEMP: 36; 6HR MAX TEMP: 40; Laguardia PTCLDY 38 20 48 SW13 29.99R WCI 30 6HR MIN TEMP: 38; 6HR MAX TEMP: 40; J F K MOCLDY 36 23 59 W15 30.01S WCI 27 6HR MIN TEMP: 36; 6HR MAX TEMP: 38; Boston MOCLDY 33 24 69 SW13 29.93R WCI 24 6HR MIN TEMP: 33; 6HR MAX TEMP: 38; Pittsburg CLOUDY 32 18 56 SW12 29.96R WCI 23 6HR MIN TEMP: 31; 6HR MAX TEMP: 33; Akron CLOUDY 29 16 58 SW10 29.96R WCI 20 6HR MIN TEMP: 28; 6HR MAX TEMP: 30; Cleveland CLOUDY 30 18 60 SW12 29.99R WCI 20 6HR MIN TEMP: 28; 6HR MAX TEMP: 30; Cincinnati PTCLDY 33 20 58 SW7 30.01R WCI 27 6HR MIN TEMP: 32; 6HR MAX TEMP: 35; Columbus CLOUDY 29 22 76 SW3 30.02S Detroit CLOUDY 29 20 69 SW12 29.94S WCI 19 6HR MIN TEMP: 26; 6HR MAX TEMP: 29; 6HR PCP: TRACE; Chicago O`Hare CLOUDY 31 19 61 NW12 30.03R WCI 22 6HR MIN TEMP: 30; 6HR MAX TEMP: 35; Minneapolis PTCLDY 27 21 78 CALM 30.05S 6HR MIN TEMP: 25; 6HR MAX TEMP: 29; Indianapolis PTCLDY 31 22 69 SW9 30.00R WCI 23 6HR MIN TEMP: 30; 6HR MAX TEMP: 38; Toronto Canada FLURRIES 27 19 74 W18G24 29.84R WCI 13 $$

USA.gov is the U.S. government's official web portal to all federal, state and local government web resources and services.